H1 CPF 2 NER 2021 8 19 9 231 01 glonass134 H2 1407501 9134 40315 2021 8 19 0 0 0 2021 8 22 23 45 0 900 1 1 0 0 0 1 H9 10 0 59445 0.00000 0 3370132.312 19349618.355 16253934.329 10 0 59445 900.00000 0 3042014.340 21177002.840 13854461.181 10 0 59445 1800.00000 0 2888819.183 22714289.625 11185259.523 10 0 59445 2700.00000 0 2871804.845 23917378.488 8298149.643 10 0 59445 3600.00000 0 2945066.833 24752807.789 5249280.278 10 0 59445 4500.00000 0 3057719.000 25199085.293 2098031.954 10 0 59445 5400.00000 0 3156296.029 25247533.782 -1094150.006 10 0 59445 6300.00000 0 3187274.273 24902613.872 -4264969.006 10 0 59445 7200.00000 0 3099601.961 24181709.009 -7352511.767 10 0 59445 8100.00000 0 2847128.848 23114380.998 -10296477.882 10 0 59445 9000.00000 0 2390829.522 21741127.405 -13039378.116 10 0 59445 9900.00000 0 1700723.449 20111693.913 -15527675.780 10 0 59445 10800.00000 0 757408.009 18283014.061 -17712847.031 10 0 59445 11700.00000 0 -446862.231 16316864.800 -19552337.915 10 0 59445 12600.00000 0 -1907596.892 14277338.389 -21010398.492 10 0 59445 13500.00000 0 -3608016.862 12228238.559 -22058777.499 10 0 59445 14400.00000 0 -5519529.394 10230511.579 -22677264.292 10 0 59445 15300.00000 0 -7602710.748 8339820.661 -22854068.324 10 0 59445 16200.00000 0 -9808754.405 6604365.266 -22586030.071 10 0 59445 17100.00000 0 -12081323.298 5063035.666 -21878660.838 10 0 59445 18000.00000 0 -14358727.627 3743978.361 -20746012.428 10 0 59445 18900.00000 0 -16576336.643 2663629.963 -19210380.930 10 0 59445 19800.00000 0 -18669123.452 1826257.071 -17301852.011 10 0 59445 20700.00000 0 -20574236.718 1224018.288 -15057698.001 10 0 59445 21600.00000 0 -22233492.681 837542.557 -12521639.645 10 0 59445 22500.00000 0 -23595684.656 636996.547 -9742987.668 10 0 59445 23400.00000 0 -24618615.094 583593.742 -6775681.409 10 0 59445 24300.00000 0 -25270767.267 631479.798 -3677243.357 10 0 59445 25200.00000 0 -25532548.673 729913.520 -507669.657 10 0 59445 26100.00000 0 -25397056.139 825651.057 2671722.238 10 0 59445 27000.00000 0 -24870332.360 865432.846 5799467.248 10 0 59445 27900.00000 0 -23971104.477 798469.094 8815126.006 10 0 59445 28800.00000 0 -22730016.425 578819.918 11660436.299 10 0 59445 29700.00000 0 -21188387.351 167570.904 14280421.795 10 0 59445 30600.00000 0 -19396547.500 -465286.661 16624438.175 10 0 59445 31500.00000 0 -17411820.035 -1339349.363 18647137.863 10 0 59445 32400.00000 0 -15296231.424 -2462732.419 20309336.206 10 0 59445 33300.00000 0 -13114043.899 -3831483.127 21578763.520 10 0 59445 34200.00000 0 -10929210.774 -5429503.008 22430689.297 10 0 59445 35100.00000 0 -8802858.502 -7228984.041 22848406.919 10 0 59445 36000.00000 0 -6790898.480 -9191343.475 22823569.374 10 0 59445 36900.00000 0 -4941866.693 -11268621.246 22356368.776 10 0 59445 37800.00000 0 -3295080.296 -13405284.914 21455554.995 10 0 59445 38700.00000 0 -1879187.678 -15540369.921 20138291.316 10 0 59445 39600.00000 0 -711172.871 -17609868.446 18429847.864 10 0 59445 40500.00000 0 204143.347 -19549269.135 16363136.513 10 0 59445 41400.00000 0 874083.744 -21296142.764 13978094.042 10 0 59445 42300.00000 0 1317575.922 -22792665.851 11320923.564 10 0 59445 43200.00000 0 1564116.300 -23987975.888 8443207.383 10 0 59445 44100.00000 0 1652279.789 -24840258.038 5400907.493 10 0 59445 45000.00000 0 1627837.921 -25318473.606 2253272.961 10 0 59445 45900.00000 0 1541565.593 -25403655.416 -938324.189 10 0 59445 46800.00000 0 1446830.525 -25089713.319 -4111600.785 10 0 59445 47700.00000 0 1397069.452 -24383713.955 -7204596.671 10 0 59445 48600.00000 0 1443260.468 -23305621.654 -10156905.110 10 0 59445 49500.00000 0 1631501.372 -21887510.659 -12910873.199 10 0 59445 50400.00000 0 2000799.415 -20172281.999 -15412746.588 10 0 59445 51300.00000 0 2581168.575 -18211939.798 -17613734.236 10 0 59445 52200.00000 0 3392117.054 -16065500.826 -19470970.957 10 0 59445 53100.00000 0 4441590.410 -13796626.850 -20948357.911 10 0 59445 54000.00000 0 5725415.855 -11471080.813 -22017264.385 10 0 59445 54900.00000 0 7227271.394 -9154114.902 -22657077.426 10 0 59445 55800.00000 0 8919180.730 -6907900.932 -22855589.399 10 0 59445 56700.00000 0 10762512.404 -4789110.762 -22609217.222 10 0 59445 57600.00000 0 12709440.280 -2846747.378 -21923050.523 10 0 59445 58500.00000 0 14704803.036 -1120315.984 -20810729.538 10 0 59445 59400.00000 0 16688283.928 361590.604 -19294156.844 10 0 59445 60300.00000 0 18596819.009 1582235.901 -17403050.164 10 0 59445 61200.00000 0 20367132.811 2537176.627 -15174346.410 10 0 59445 62100.00000 0 21938295.774 3234177.612 -12651469.701 10 0 59445 63000.00000 0 23254197.223 3692611.554 -9883478.441 10 0 59445 63900.00000 0 24265831.636 3942371.755 -6924108.591 10 0 59445 64800.00000 0 24933304.112 4022345.953 -3830731.908 10 0 59445 65700.00000 0 25227472.888 3978517.271 -663249.175 10 0 59445 66600.00000 0 25131161.871 3861773.260 2517060.472 10 0 59445 67500.00000 0 24639894.121 3725515.713 5648712.625 10 0 59445 68400.00000 0 23762116.854 3623171.734 8671191.402 10 0 59445 69300.00000 0 22518909.390 3605710.203 11526102.424 10 0 59445 70200.00000 0 20943186.520 3719267.257 14158284.111 10 0 59445 71100.00000 0 19078430.168 4002979.781 16516857.356 10 0 59445 72000.00000 0 16977001.305 4487117.151 18556194.703 10 0 59445 72900.00000 0 14698100.973 5191589.364 20236791.791 10 0 59445 73800.00000 0 12305463.325 6124894.329 21526025.386 10 0 59445 74700.00000 0 9864874.547 7283549.319 22398784.165 10 0 59445 75600.00000 0 7441618.565 8652031.935 22837960.535 10 0 59445 76500.00000 0 5097953.562 10203235.338 22834793.816 10 0 59445 77400.00000 0 2890722.546 11899421.379 22389057.521 10 0 59445 78300.00000 0 869195.970 13693634.856 21509085.886 10 0 59445 79200.00000 0 -926764.501 15531522.860 20211637.460 10 0 59445 80100.00000 0 -2468144.629 17353485.935 18521596.355 10 0 59445 81000.00000 0 -3737758.236 19097073.390 16471514.739 10 0 59445 81900.00000 0 -4730728.010 20699524.078 14101003.150 10 0 59445 82800.00000 0 -5454445.247 22100346.802 11455978.551 10 0 59445 83700.00000 0 -5928009.225 23243831.879 8587783.088 10 0 59445 84600.00000 0 -6181168.989 24081387.274 5552189.632 10 0 59445 85500.00000 0 -6252811.789 24573599.188 2408313.204 10 0 59446 0.00000 0 -6189062.235 24691928.191 -782550.126 10 0 59446 900.00000 0 -6041073.665 24419966.584 -3958133.567 10 0 59446 1800.00000 0 -5862606.296 23754202.776 -7056432.896 10 0 59446 2700.00000 0 -5707497.842 22704256.665 -10016937.872 10 0 59446 3600.00000 0 -5627135.353 21292576.781 -12781834.661 10 0 59446 4500.00000 0 -5668038.779 19553610.013 -15297153.825 10 0 59446 5400.00000 0 -5869660.910 17532479.668 -17513839.504 10 0 59446 6300.00000 0 -6262499.159 15283228.048 -19388717.426 10 0 59446 7200.00000 0 -6866600.736 12866698.744 -20885341.767 10 0 59446 8100.00000 0 -7690525.403 10348148.949 -21974704.030 10 0 59446 9000.00000 0 -8730810.028 7794693.234 -22635790.340 10 0 59446 9900.00000 0 -9971957.167 5272686.948 -22855977.066 10 0 59446 10800.00000 0 -11386947.460 2845159.135 -22631258.306 10 0 59446 11700.00000 0 -12938253.186 569402.005 -21966302.365 10 0 59446 12600.00000 0 -14579309.133 -1505183.275 -20874337.837 10 0 59446 13500.00000 0 -16256377.898 -3338896.350 -19376873.272 10 0 59446 14400.00000 0 -17910730.418 -4903129.906 -17503257.505 10 0 59446 15300.00000 0 -19481049.722 -6181289.095 -15290090.674 10 0 59446 16200.00000 0 -20905957.008 -7169203.098 -12780498.598 10 0 59446 17100.00000 0 -22126554.592 -7875014.932 -10023285.395 10 0 59446 18000.00000 0 -23088879.898 -8318557.334 -7071981.471 10 0 59446 18900.00000 0 -23746168.895 -8530243.714 -3983805.505 10 0 59446 19800.00000 0 -24060835.574 -8549523.037 -818560.426 10 0 59446 20700.00000 0 -24006086.043 -8422965.134 2362515.557 10 0 59446 21600.00000 0 -23567101.156 -8202057.857 5497921.413 10 0 59446 22500.00000 0 -22741739.340 -7940808.981 8527067.533 10 0 59446 23400.00000 0 -21540731.083 -7693253.348 11391430.198 10 0 59446 24300.00000 0 -19987357.255 -7510969.379 14035665.389 10 0 59446 25200.00000 0 -18116624.377 -7440708.361 16408661.924 10 0 59446 26100.00000 0 -15973970.362 -7522235.174 18464515.016 10 0 59446 27000.00000 0 -13613553.170 -7786470.391 20163402.888 10 0 59446 27900.00000 0 -11096191.570 -8254011.381 21472350.725 10 0 59446 28800.00000 0 -8487041.418 -8934094.733 22365868.019 10 0 59446 29700.00000 0 -5853101.509 -9824044.372 22826447.437 10 0 59446 30600.00000 0 -3260650.167 -10909230.172 22844915.507 10 0 59446 31500.00000 0 -772716.987 -12163540.952 22420627.648 10 0 59446 32400.00000 0 1553306.978 -13550354.779 21561502.642 10 0 59446 33300.00000 0 3667822.414 -15023968.810 20283894.168 10 0 59446 34200.00000 0 5530849.117 -16531431.607 18612299.888 10 0 59446 35100.00000 0 7113451.349 -18014703.611 16578911.503 10 0 59446 36000.00000 0 8398701.065 -19413057.083 14223012.236 10 0 59446 36900.00000 0 9382137.725 -20665615.793 11590231.484 10 0 59446 37800.00000 0 10071704.362 -21713927.939 8731669.471 10 0 59446 38700.00000 0 10487161.667 -22504463.338 5702907.849 10 0 59446 39600.00000 0 10659004.069 -22990928.123 2562925.196 10 0 59446 40500.00000 0 10626923.484 -23136297.269 -627061.150 10 0 59446 41400.00000 0 10437886.169 -22914476.656 -3804803.358 10 0 59446 42300.00000 0 10143905.225 -22311521.976 -6908256.212 10 0 59446 43200.00000 0 9799604.933 -21326360.691 -9876809.013 10 0 59446 44100.00000 0 9459682.357 -19970984.706 -12652490.050 10 0 59446 45000.00000 0 9176376.332 -18270104.464 -15181117.795 10 0 59446 45900.00000 0 8997053.583 -16260278.529 -17413374.457 10 0 59446 46800.00000 0 8962016.477 -13988555.527 -19305779.368 10 0 59446 47700.00000 0 9102626.963 -11510686.327 -20821542.125 10 0 59446 48600.00000 0 9439827.232 -8888982.663 -21931278.497 10 0 59446 49500.00000 0 9983120.021 -6189913.149 -22613575.330 10 0 59446 50400.00000 0 10730051.436 -3481538.519 -22855394.187 10 0 59446 51300.00000 0 11666217.260 -830893.951 -22652307.095 10 0 59446 52200.00000 0 12765791.306 1698572.088 -22008561.340 10 0 59446 53100.00000 0 13992552.076 4049396.099 -20936973.765 10 0 59446 54000.00000 0 15301363.088 6172236.262 -19458658.393 10 0 59446 54900.00000 0 16640043.305 8027660.523 -17602594.285 10 0 59446 55800.00000 0 17951548.072 9587514.034 -15405043.567 10 0 59446 56700.00000 0 19176368.351 10835811.983 -12908832.120 10 0 59446 57600.00000 0 20255047.446 11769123.805 -10162507.785 10 0 59446 58500.00000 0 21130709.900 12396435.963 -7219393.058 10 0 59446 59400.00000 0 21751497.243 12738502.082 -4136550.878 10 0 59446 60300.00000 0 22072809.502 12826710.337 -973683.415 10 0 59446 61200.00000 0 22059259.748 12701517.552 2208015.126 10 0 59446 62100.00000 0 21686261.039 12410517.123 5347030.224 10 0 59446 63000.00000 0 20941180.429 12006222.561 8382701.643 10 0 59446 63900.00000 0 19824012.546 11543659.717 11256379.306 10 0 59446 64800.00000 0 18347544.932 11077868.323 13912539.546 10 0 59446 65700.00000 0 16537007.990 10661416.877 16299841.677 10 0 59446 66600.00000 0 14429223.359 10342034.101 18372105.886 10 0 59446 67500.00000 0 12071284.728 10160455.388 20089195.024 10 0 59446 68400.00000 0 9518824.026 10148573.793 21417784.456 10 0 59446 69300.00000 0 6833932.708 10327972.807 22332005.930 10 0 59446 70200.00000 0 4082821.877 10708902.682 22813953.496 10 0 59446 71100.00000 0 1333315.703 11289744.177 22854041.631 10 0 59446 72000.00000 0 -1347720.204 12056983.757 22451208.013 10 0 59446 72900.00000 0 -3896910.821 12985703.442 21612955.880 10 0 59446 73800.00000 0 -6256760.516 14040567.282 20355233.505 10 0 59446 74700.00000 0 -8377800.119 15177265.699 18702151.121 10 0 59446 75600.00000 0 -10220403.162 16344359.576 16685538.575 10 0 59446 76500.00000 0 -11756195.170 17485448.706 14344350.025 10 0 59446 77400.00000 0 -12968996.216 18541574.796 11723925.261 10 0 59446 78300.00000 0 -13855256.228 19453758.477 8875120.329 10 0 59446 79200.00000 0 -14423963.654 20165563.095 5853323.243 10 0 59446 80100.00000 0 -14696030.364 20625575.926 2717373.621 10 0 59446 81000.00000 0 -14703178.263 20789700.169 -471592.458 10 0 59446 81900.00000 0 -14486374.716 20623158.443 -3651348.887 10 0 59446 82800.00000 0 -14093883.671 20102120.445 -6759812.050 10 0 59446 83700.00000 0 -13579016.371 19214883.400 -9736273.412 10 0 59446 84600.00000 0 -12997678.873 17962553.103 -12522605.926 10 0 59446 85500.00000 0 -12405822.529 16359195.119 -15064418.397 10 0 59447 0.00000 0 -11856907.824 14431448.712 -17312133.306 10 0 59447 900.00000 0 -11399491.490 12217619.060 -19221965.692 10 0 59447 1800.00000 0 -11075039.928 9766287.170 -20756782.338 10 0 59447 2700.00000 0 -10916064.423 7134495.294 -21886824.801 10 0 59447 3600.00000 0 -10944655.598 4385586.047 -22590281.916 10 0 59447 4500.00000 0 -11171480.212 1586786.259 -22853701.413 10 0 59447 5400.00000 0 -11595281.198 -1193362.484 -22672233.904 10 0 59447 6300.00000 0 -12202900.845 -3887618.949 -22049705.972 10 0 59447 7200.00000 0 -12969824.419 -6432594.066 -20998522.658 10 0 59447 8100.00000 0 -13861219.493 -8771133.946 -19539403.015 10 0 59447 9000.00000 0 -14833425.510 -10854436.391 -17700955.523 10 0 59447 9900.00000 0 -15835829.354 -12643814.804 -15519103.128 10 0 59447 10800.00000 0 -16813046.970 -14112038.709 -13036370.308 10 0 59447 11700.00000 0 -17707318.643 -15244198.019 -10301046.888 10 0 59447 12600.00000 0 -18461017.112 -16038058.073 -7366245.515 10 0 59447 13500.00000 0 -19019163.479 -16503893.711 -4288871.255 10 0 59447 14400.00000 0 -19331845.928 -16663812.133 -1128523.237 10 0 59447 15300.00000 0 -19356440.717 -16550595.140 2053650.766 10 0 59447 16200.00000 0 -19059543.335 -16206111.010 5196125.313 10 0 59447 17100.00000 0 -18418529.886 -15679363.573 8238172.231 10 0 59447 18000.00000 0 -17422684.123 -15024260.673 11121017.864 10 0 59447 18900.00000 0 -16073843.351 -14297195.311 13788961.713 10 0 59447 19800.00000 0 -14386536.104 -13554540.182 16190436.353 10 0 59447 20700.00000 0 -12387605.142 -12850159.555 18278989.585 10 0 59447 21600.00000 0 -10115330.161 -12233041.627 20014171.304 10 0 59447 22500.00000 0 -7618084.769 -11745149.439 21362309.178 10 0 59447 23400.00000 0 -4952581.259 -11419579.634 22297158.987 10 0 59447 24300.00000 0 -2181773.322 -11279105.843 22800417.559 10 0 59447 25200.00000 0 627499.070 -11335168.003 22862088.326 10 0 59447 26100.00000 0 3407027.562 -11587350.849 22480691.847 10 0 59447 27000.00000 0 6089814.045 -12023374.967 21663316.083 10 0 59447 27900.00000 0 8612604.896 -12619602.754 20425503.820 10 0 59447 28800.00000 0 10918276.712 -13342040.334 18790977.455 10 0 59447 29700.00000 0 12957974.878 -14147795.668 16791204.235 10 0 59447 30600.00000 0 14692915.749 -14986933.590 14464808.162 10 0 59447 31500.00000 0 16095776.428 -15804651.305 11856837.958 10 0 59447 32400.00000 0 17151612.947 -16543683.519 9017903.639 10 0 59447 33300.00000 0 17858267.087 -17146835.774 6003197.366 10 0 59447 34200.00000 0 18226243.501 -17559538.196 2871417.224 10 0 59447 35100.00000 0 18278061.480 -17732310.078 -316384.819 10 0 59447 36000.00000 0 18047108.342 -17623028.792 -3498007.430 10 0 59447 36900.00000 0 17576043.114 -17198904.447 -6611331.746 10 0 59447 37800.00000 0 16914818.993 -16438073.928 -9595554.547 10 0 59447 38700.00000 0 16118409.786 -15330744.355 -12392396.538 10 0 59447 39600.00000 0 15244338.598 -13879835.441 -14947259.807 10 0 59447 40500.00000 0 14350115.587 -12101092.070 -17210309.934 10 0 59447 41400.00000 0 13490695.463 -10022661.391 -19137460.018 10 0 59447 42300.00000 0 12716064.167 -7684152.068 -20691236.290 10 0 59447 43200.00000 0 12069058.173 -5135215.549 -21841507.973 10 0 59447 44100.00000 0 11583509.239 -2433709.574 -22566067.353 10 0 59447 45000.00000 0 11282792.890 356478.114 -22851049.381 10 0 59447 45900.00000 0 11178841.110 3167854.047 -22691183.878 10 0 59447 46800.00000 0 11271659.429 5931889.413 -22089876.928 10 0 59447 47700.00000 0 11549366.877 8581629.141 -21059121.572 10 0 59447 48600.00000 0 11988754.974 11054231.347 -19619241.324 10 0 59447 49500.00000 0 12556340.014 13293332.483 -17798473.142 10 0 59447 50400.00000 0 13209862.319 15251141.249 -15632399.496 10 0 59447 51300.00000 0 13900167.678 16890176.337 -13163241.811 10 0 59447 52200.00000 0 14573390.561 18184578.250 -10439029.908 10 0 59447 53100.00000 0 15173346.552 19120943.327 -7512664.244 10 0 59447 54000.00000 0 15644033.186 19698648.157 -4440889.394 10 0 59447 54900.00000 0 15932134.351 19929653.614 -1283198.557 10 0 59447 55800.00000 0 15989423.628 19837799.109 1899309.964 10 0 59447 56700.00000 0 15774966.537 19457618.530 5045102.941 10 0 59447 57600.00000 0 15257030.165 18832728.721 8093387.371 10 0 59447 58500.00000 0 14414620.900 18013858.596 10985269.026 10 0 59447 59400.00000 0 13238586.383 17056601.422 13664873.407 10 0 59447 60300.00000 0 11732235.540 16018983.796 16080408.958 10 0 59447 61200.00000 0 9911450.310 14958952.062 18185153.444 10 0 59447 62100.00000 0 7804283.211 13931880.132 19938345.860 10 0 59447 63000.00000 0 5450055.680 12988201.649 21305967.924 10 0 59447 63900.00000 0 2897992.453 12171264.408 22261400.849 10 0 59447 64800.00000 0 205445.940 11515495.960 22785945.255 10 0 59447 65700.00000 0 -2564218.621 11044956.819 22869194.144 10 0 59447 66600.00000 0 -5343992.343 10772342.102 22509251.110 10 0 59447 67500.00000 0 -8065750.614 10698474.238 21712788.518 10 0 59447 68400.00000 0 -10662837.117 10812309.430 20494942.861 10 0 59447 69300.00000 0 -13072598.140 11091459.378 18879047.406 10 0 59447 70200.00000 0 -15238762.736 11503208.350 16896205.075 10 0 59447 71100.00000 0 -17113569.758 12005984.758 14584707.608 10 0 59447 72000.00000 0 -18659552.429 12551226.884 11989310.267 10 0 59447 72900.00000 0 -19850904.819 13085565.176 9160374.462 10 0 59447 73800.00000 0 -20674371.592 13553229.293 6152893.806 10 0 59447 74700.00000 0 -21129622.177 13898577.711 3025422.153 10 0 59447 75600.00000 0 -21229092.388 14068641.557 -161075.322 10 0 59447 76500.00000 0 -20997299.327 14015572.984 -3344424.677 10 0 59447 77400.00000 0 -20469658.199 13698891.886 -6462474.341 10 0 59447 78300.00000 0 -19690851.475 13087433.029 -9454328.871 10 0 59447 79200.00000 0 -18712820.425 12160908.363 -12261559.057 10 0 59447 80100.00000 0 -17592465.619 10911015.998 -14829362.455 10 0 59447 81000.00000 0 -16389155.652 9342046.914 -17107649.682 10 0 59447 81900.00000 0 -15162151.522 7470962.448 -19052033.713 10 0 59447 82800.00000 0 -13968057.473 5326938.607 -20624701.640 10 0 59447 83700.00000 0 -12858407.502 2950396.309 -21795151.486 10 0 59447 84600.00000 0 -11877490.235 391558.648 -22540779.805 10 0 59447 85500.00000 0 -11060504.138 -2291403.478 -22847309.257 10 0 59448 0.00000 0 -10432120.086 -5034558.927 -22709049.060 10 0 59448 900.00000 0 -10005510.719 -7770645.097 -22128984.625 10 0 59448 1800.00000 0 -9781884.748 -10431635.738 -21118696.554 10 0 59448 2700.00000 0 -9750544.793 -12951340.930 -19698112.050 10 0 59448 3600.00000 0 -9889462.202 -15267931.765 -17895095.520 10 0 59448 4500.00000 0 -10166343.281 -17326285.205 -15744887.680 10 0 59448 5400.00000 0 -10540139.281 -19080053.551 -13289405.424 10 0 59448 6300.00000 0 -10962934.898 -20493374.400 -10576416.927 10 0 59448 7200.00000 0 -11382134.468 -21542152.301 -7658608.704 10 0 59448 8100.00000 0 -11742853.124 -22214861.404 -4592562.969 10 0 59448 9000.00000 0 -11990412.074 -22512838.224 -1437665.047 10 0 59448 9900.00000 0 -12072833.366 -22450054.673 1745038.285 10 0 59448 10800.00000 0 -11943229.833 -22052382.902 4894008.164 10 0 59448 11700.00000 0 -11561990.610 -21356384.124 7948389.038 10 0 59448 12600.00000 0 -10898671.289 -20407672.913 10849168.495 10 0 59448 13500.00000 0 -9933510.015 -19258925.584 13540300.497 10 0 59448 14400.00000 0 -8658506.240 -17967615.506 15969771.842 10 0 59448 15300.00000 0 -7078016.704 -16593569.113 18090592.677 10 0 59448 16200.00000 0 -5208842.855 -15196443.440 19861693.380 10 0 59448 17100.00000 0 -3079804.409 -13833229.102 21248711.776 10 0 59448 18000.00000 0 -730814.747 -12555881.573 22224656.284 10 0 59448 18900.00000 0 1788506.124 -11409178.453 22770432.768 10 0 59448 19800.00000 0 4420626.395 -10428891.373 22875224.884 10 0 59448 20700.00000 0 7102233.536 -9640348.629 22536719.991 10 0 59448 21600.00000 0 9766616.143 -9057448.861 21761175.226 10 0 59448 22500.00000 0 12346200.224 -8682167.875 20563320.815 10 0 59448 23400.00000 0 14775136.448 -8504580.554 18966100.583 10 0 59448 24300.00000 0 16991832.073 -8503398.534 17000252.472 10 0 59448 25200.00000 0 18941322.545 -8647002.704 14703734.959 10 0 59448 26100.00000 0 20577383.507 -8894928.644 12121008.471 10 0 59448 27000.00000 0 21864293.978 -9199743.499 9302184.051 10 0 59448 27900.00000 0 22778175.467 -9509235.593 6302054.628 10 0 59448 28800.00000 0 23307849.105 -9768824.035 3179027.305 10 0 59448 29700.00000 0 23455173.198 -9924085.358 -6022.358 10 0 59448 30600.00000 0 23234845.658 -9923288.453 -3190950.867 10 0 59448 31500.00000 0 22673678.838 -9719828.072 -6313577.123 10 0 59448 32400.00000 0 21809377.262 -9274451.069 -9312916.639 10 0 59448 33300.00000 0 20688870.405 -8557178.204 -12130393.390 10 0 59448 34200.00000 0 19366272.181 -7548837.483 -14711003.306 10 0 59448 35100.00000 0 17900555.006 -6242141.833 -17004404.741 10 0 59448 36000.00000 0 16353038.608 -4642263.803 -18965912.958 10 0 59448 36900.00000 0 14784801.502 -2766881.972 -20557378.039 10 0 59448 37800.00000 0 13254125.984 -645696.628 -21747928.609 10 0 59448 38700.00000 0 11814085.371 1680564.822 -22514566.951 10 0 59448 39600.00000 0 10510375.595 4161610.360 -22842604.536 10 0 59448 40500.00000 0 9379481.972 6739451.736 -22725930.663 10 0 59448 41400.00000 0 8447257.043 9350599.777 -22167110.441 10 0 59448 42300.00000 0 7727967.443 11928494.143 -21177311.918 10 0 59448 43200.00000 0 7223847.358 14406065.895 -19776065.543 10 0 59448 44100.00000 0 6925174.545 16718326.158 -17990862.304 10 0 59448 45000.00000 0 6810862.870 18804873.618 -15856599.925 10 0 59448 45900.00000 0 6849543.645 20612217.610 -13414889.146 10 0 59448 46800.00000 0 7001087.867 22095821.731 -10713234.502 10 0 59448 47700.00000 0 7218503.401 23221784.817 -7804106.203 10 0 59448 48600.00000 0 7450125.906 23968091.568 -4743921.434 10 0 59448 49500.00000 0 7642010.550 24325383.059 -1591954.701 10 0 59448 50400.00000 0 7740423.729 24297217.205 1590801.888 10 0 59448 51300.00000 0 7694330.250 23899810.338 4742807.080 10 0 59448 52200.00000 0 7457771.991 23161272.205 7803146.030 10 0 59448 53100.00000 0 6992038.881 22120367.319 10712691.303 10 0 59448 54000.00000 0 6267541.724 20824854.744 13415228.330 10 0 59448 54900.00000 0 5265308.723 19329475.382 15858525.035 10 0 59448 55800.00000 0 3978043.062 17693669.935 17995326.443 10 0 59448 56700.00000 0 2410696.652 15979121.514 19784256.504 10 0 59448 57600.00000 0 580534.870 14247223.798 21190610.983 10 0 59448 58500.00000 0 -1483312.325 12556578.698 22187026.957 10 0 59448 59400.00000 0 -3740796.633 10960626.298 22754016.559 10 0 59448 60300.00000 0 -6142358.606 9505504.575 22880354.662 10 0 59448 61200.00000 0 -8630740.309 8228227.398 22563312.464 10 0 59448 62100.00000 0 -11143131.237 7155256.530 21808731.410 10 0 59448 63000.00000 0 -13613561.188 6301527.488 20630934.461 10 0 59448 63900.00000 0 -15975442.791 5669970.891 19052474.470 10 0 59448 64800.00000 0 -18164159.601 5251550.420 17103722.376 10 0 59448 65700.00000 0 -20119592.733 5025817.228 14822300.943 10 0 59448 66600.00000 0 -21788480.557 4961958.875 12252372.978 10 0 59448 67500.00000 0 -23126512.045 5020299.740 9443796.143 10 0 59448 68400.00000 0 -24100064.746 5154190.270 6451159.548 10 0 59448 69300.00000 0 -24687512.624 5312205.321 3332720.406 10 0 59448 70200.00000 0 -24880046.924 5440557.856 149261.590 10 0 59448 71100.00000 0 -24681973.777 5485624.331 -3037106.798 10 0 59448 72000.00000 0 -24110474.608 5396472.713 -6164176.916 10 0 59448 72900.00000 0 -23194838.779 5127283.352 -9170877.839 10 0 59448 73800.00000 0 -21975200.752 4639557.292 -11998489.128 10 0 59448 74700.00000 0 -20500835.805 3904015.702 -14591807.265 10 0 59448 75600.00000 0 -18828087.449 2902107.454 -16900240.225 10 0 59448 76500.00000 0 -17018015.666 1627059.051 -18878807.114 10 0 59448 77400.00000 0 -15133866.941 84421.132 -20489022.178 10 0 59448 78300.00000 0 -13238474.344 -1707912.285 -21699645.387 10 0 59448 79200.00000 0 -11391698.348 -3720212.807 -22487285.064 10 0 59448 80100.00000 0 -9648016.724 -5911933.154 -22836841.363 10 0 59448 81000.00000 0 -8054364.673 -8233185.801 -22741783.147 10 0 59448 81900.00000 0 -6648314.944 -10626622.023 -22204254.309 10 0 59448 82800.00000 0 -5456672.713 -13029631.825 -21235009.166 10 0 59448 83700.00000 0 -4494541.779 -15376772.242 -19853179.941 10 0 59448 84600.00000 0 -3764898.389 -17602322.433 -18085882.554 10 0 59448 85500.00000 0 -3258687.555 -19642859.088 -15967669.939 99